Theta_e
311 309 308 308 308 310 310 310 310 311 312 311 311 311 311 312 313 312 314 315 316 315 317 317 319 320 325 326 326 326 327 327 330 342 344 343 341 342 344 342 334 338 340 335
309 309 309 310 310 310 310 311 311 311 312 310 310 311 310 310 311 313 314 315 316 316 315 317 318 318 321 324 325 326 326 326 326 337 343 344 343 344 346 345 341 340 341 340
309 311 312 312 312 312 311 311 312 312 313 311 311 312 311 312 312 314 316 316 316 316 317 318 318 319 319 320 324 325 325 327 332 338 343 344 342 344 344 343 344 343 341 341
310 311 311 311 312 311 312 314 316 317 314 313 312 314 312 311 310 312 314 315 315 315 315 317 321 320 320 321 323 324 325 324 327 336 340 345 344 343 342 338 336 342 342 341
312 312 311 312 312 315 314 316 316 316 314 310 311 309 314 311 311 310 311 314 315 316 316 316 317 319 320 321 324 324 324 322 321 321 319 318 318 324 336 340 339 338 339 339
312 313 311 311 313 316 316 316 315 314 310 314 313 312 315 313 312 311 311 314 314 314 316 317 317 317 319 322 325 323 321 320 319 319 318 317 316 315 317 327 337 337 337 336
312 312 312 316 316 315 313 312 313 314 313 316 314 314 312 312 312 311 311 312 315 315 317 317 317 317 317 323 323 321 320 320 319 319 318 318 317 316 316 316 319 329 328 334
313 314 315 317 316 316 315 313 313 316 317 316 314 315 313 312 313 314 314 314 316 316 316 317 317 317 317 323 322 320 319 318 318 317 316 316 315 315 315 315 318 322 322 325
313 315 315 316 315 314 316 315 313 314 314 314 314 314 313 313 314 315 315 314 315 315 316 316 315 317 318 322 320 319 317 317 316 316 316 316 317 316 314 316 317 320 321 320
312 313 314 315 315 313 314 313 313 311 318 318 313 315 316 314 315 314 315 315 315 316 315 316 317 318 322 320 318 317 317 317 317 316 316 317 318 319 318 321 321 321 323 322
312 311 313 313 313 311 311 314 312 312 314 318 313 312 313 317 316 314 313 314 316 315 315 315 316 316 317 318 318 317 317 318 317 318 318 317 319 320 319 319 323 325 325 328
312 312 313 313 311 312 311 311 311 308 310 315 312 313 312 312 312 313 312 313 315 316 316 316 317 315 315 316 317 317 317 317 317 316 317 317 317 317 319 319 319 319 319 321
313 311 313 311 308 308 312 313 312 311 310 313 313 312 310 310 311 312 312 313 314 315 315 316 316 316 316 315 316 317 317 317 316 316 317 318 318 318 319 320 319 319 318 318
312 308 310 312 310 307 309 311 312 311 311 312 312 312 311 311 312 312 312 313 315 314 315 316 316 316 315 316 316 316 316 317 317 318 318 318 318 319 319 319 320 320 319 318
307 309 308 308 309 309 310 311 311 310 311 312 312 311 311 312 311 312 313 314 315 315 315 315 315 316 315 315 316 316 316 316 317 318 318 318 318 319 316 317 319 319 317 316
305 308 308 309 310 309 310 310 310 310 310 310 311 311 312 313 312 313 313 312 314 313 314 315 315 315 315 315 316 315 316 316 316 318 318 318 317 316 316 317 316 315 315 315
305 305 307 308 310 310 310 310 314 314 314 315 315 314 313 312 312 312 312 311 312 313 312 311 311 313 314 314 315 316 316 316 315 315 316 316 315 315 315 316 315 315 315 314
304 304 303 307 307 312 308 314 314 314 315 314 314 314 312 311 310 308 307 308 312 310 310 310 309 309 309 311 312 312 313 313 314 314 314 314 314 314 315 315 314 314 315 314
303 302 303 305 304 308 310 315 314 313 312 311 311 310 309 308 307 306 306 308 312 310 309 309 308 307 308 309 310 310 310 311 312 312 312 312 312 312 312 312 312 311 311 310
307 305 306 303 310 309 311 312 311 311 312 310 309 308 306 305 305 304 304 305 305 305 305 306 306 305 306 307 308 308 309 309 309 309 311 311 311 311 312 312 311 310 310 310
311 312 308 305 311 310 310 309 308 311 309 306 306 306 305 305 305 305 304 305 305 305 305 306 305 304 305 304 304 305 305 306 308 308 308 308 309 309 310 311 312 311 311 310
311 311 311 313 313 310 308 307 308 307 307 306 305 305 305 305 305 305 305 303 302 303 306 305 303 303 303 303 303 304 304 304 305 305 306 306 306 306 309 311 311 311 311 310
312 312 305 309 305 305 307 306 306 306 305 305 305 305 304 304 304 304 304 303 302 302 302 301 300 300 301 302 302 303 305 304 304 305 305 306 307 308 308 309 309 309 308 308
309 307 310 307 306 306 306 306 306 306 305 304 305 305 305 305 303 303 303 301 301 301 301 300 299 301 301 301 301 302 302 303 303 304 305 306 306 306 307 307 307 308 308 309
307 306 305 304 303 305 306 306 305 304 304 304 304 304 304 303 304 303 303 301 300 300 300 299 299 300 300 301 300 301 301 302 304 305 307 308 308 308 308 307 308 308 308 309
306 306 307 308 305 304 304 304 304 303 303 303 303 303 304 302 302 301 302 298 299 299 300 299 297 298 298 299 300 300 301 302 304 304 304 305 306 307 307 307 307 308 309 311
Wind_Speed
0 2 6 10 8 8 5 4 9 12 14 4 12 17 10 13 12 16 28 31 36 32 36 35 31 35 38 39 34 34 33 31 32 37 36 34 34 32 32 29 24 31 30 29
3 6 11 5 5 7 7 9 11 8 12 4 11 16 10 6 7 17 22 31 33 34 30 32 34 32 35 37 39 37 35 33 33 36 37 36 36 32 33 32 31 32 36 32
7 10 3 4 6 6 8 5 4 5 5 4 5 16 11 10 6 13 19 23 26 26 20 21 31 31 33 37 44 41 37 34 35 35 36 39 37 36 35 34 34 33 32 37
6 11 11 11 8 7 5 7 6 5 2 3 2 15 13 10 11 6 17 22 19 23 20 21 27 29 33 36 42 43 38 34 34 33 35 39 39 39 37 31 26 37 35 33
10 5 6 6 12 5 8 6 6 4 4 2 5 4 16 3 10 10 8 25 28 25 26 20 21 31 32 36 40 41 37 32 28 27 27 25 24 28 29 30 28 22 29 31
14 7 6 8 6 4 2 1 3 2 1 6 7 10 23 10 12 10 7 21 30 32 25 26 27 25 37 42 43 39 35 29 27 26 25 25 25 23 22 25 30 30 27 26
8 8 3 3 4 2 3 5 5 6 2 12 4 6 9 14 16 13 15 23 28 24 25 28 30 30 32 45 41 38 35 33 26 22 20 21 23 26 26 25 24 25 26 26
4 5 3 2 2 5 2 5 5 8 7 14 4 6 8 6 16 26 25 28 22 20 26 29 32 33 34 46 43 39 31 25 22 18 18 21 24 24 25 25 25 24 24 18
1 3 2 2 4 6 2 4 2 2 2 3 5 7 7 9 6 17 16 14 11 18 20 23 22 33 36 47 39 29 24 20 16 14 10 9 13 15 15 14 15 18 22 23
4 2 2 1 3 4 4 4 1 2 4 5 5 6 9 8 11 15 15 16 20 22 13 6 9 24 38 34 29 28 26 21 14 12 11 11 13 12 10 8 8 10 10 12
5 5 4 2 4 6 1 0 2 3 3 3 3 5 5 7 3 12 12 22 15 16 12 12 9 1 22 29 30 29 27 22 19 19 14 13 14 14 11 10 9 8 8 9
4 4 4 6 3 2 4 6 5 3 4 4 4 8 12 7 5 8 21 24 24 8 6 4 2 16 11 16 31 31 28 29 23 17 18 18 14 15 16 13 13 12 11 11
4 2 1 5 3 4 2 4 4 2 2 8 5 8 6 7 6 11 16 24 19 19 15 13 9 13 13 18 16 29 31 33 23 22 21 23 21 20 20 20 19 18 18 17
5 4 6 7 6 4 3 5 6 6 3 6 13 20 18 13 10 11 17 23 21 12 20 22 14 15 15 14 19 18 27 32 33 33 26 26 27 27 26 25 24 23 22 20
3 3 3 4 6 4 7 11 12 10 15 10 20 18 5 7 7 9 20 22 19 12 10 24 26 27 28 24 23 19 17 25 35 33 33 30 30 29 26 25 24 24 23 25
1 2 2 4 6 8 13 12 12 14 17 17 15 15 2 7 13 16 21 21 17 13 12 9 8 6 9 24 32 23 16 9 15 23 25 28 28 27 27 27 25 26 26 26
4 4 1 5 1 6 7 5 5 6 5 3 6 5 4 8 10 11 18 26 22 10 9 12 13 14 13 10 8 18 21 20 15 19 26 31 31 30 28 27 28 28 29 29
6 5 3 3 2 4 4 1 2 3 1 2 2 4 5 6 16 25 27 30 22 15 17 20 22 22 21 20 20 18 20 22 23 24 20 20 21 22 23 25 25 26 28 32
6 5 1 2 3 6 5 1 3 4 9 4 3 8 12 17 21 23 15 17 19 23 32 36 38 37 28 28 27 29 28 27 28 29 28 24 25 28 32 32 30 31 34 37
7 4 4 2 2 5 2 2 7 3 8 3 4 8 12 13 12 12 27 30 33 38 41 41 37 33 32 32 32 34 36 36 37 37 36 34 33 32 34 35 35 37 40 41
2 1 3 2 4 6 1 6 9 1 3 10 12 15 18 13 18 36 34 36 38 39 39 36 36 36 37 40 40 43 44 46 44 43 43 43 41 40 39 40 39 38 39 39
3 2 2 2 2 6 1 2 3 5 14 17 22 25 28 30 33 33 31 40 40 40 35 35 44 44 42 40 39 44 45 43 44 45 45 47 51 50 38 35 38 38 38 40
2 3 3 6 5 4 4 11 18 18 17 24 28 34 32 36 35 36 38 35 43 43 40 40 41 44 39 36 35 40 35 36 35 36 33 36 33 36 38 38 39 41 43 45
1 3 2 3 2 3 21 27 11 17 25 33 34 39 41 40 39 39 39 38 41 40 39 36 39 38 35 34 35 37 39 41 37 37 37 33 34 37 37 35 37 38 38 39
3 3 1 5 8 18 9 22 26 35 37 36 39 44 43 37 42 45 44 38 37 40 38 33 34 38 35 33 35 35 35 32 33 31 28 23 25 28 29 32 34 35 37 38
2 2 1 4 12 12 25 31 37 36 37 39 41 44 45 42 43 45 44 36 38 37 32 34 35 35 37 35 33 34 32 30 33 35 37 37 37 37 36 35 35 34 33 31
Wind_Direction
19 117 231 230 210 227 246 252 260 276 276 259 265 264 268 265 276 275 289 295 301 284 268 259 244 240 231 217 222 221 224 220 217 217 214 217 220 223 225 229 221 257 235 224
13 248 245 232 217 225 241 257 276 289 279 242 262 267 271 234 229 269 284 293 294 289 270 257 241 236 237 238 226 219 222 223 218 220 217 219 220 224 235 241 238 236 230 232
188 237 227 196 272 262 254 232 239 241 290 306 299 286 300 290 239 268 282 285 283 271 257 238 225 222 228 232 224 221 220 213 213 217 218 222 223 227 231 239 243 238 237 239
229 243 219 250 250 202 248 195 206 245 47 252 145 290 276 279 277 232 269 282 298 288 283 257 227 224 226 229 221 221 215 208 208 215 220 225 231 232 235 236 245 241 241 237
232 224 193 214 245 160 236 186 224 216 229 205 199 268 272 283 286 274 260 280 284 278 282 281 265 244 234 222 214 216 215 213 216 221 223 229 233 236 236 237 237 239 240 245
244 241 175 221 248 183 76 246 275 327 163 256 242 222 276 260 256 271 229 258 279 282 292 288 277 255 239 225 212 208 205 201 203 210 220 229 235 243 246 244 238 233 236 238
256 247 218 178 163 47 91 56 320 305 291 269 349 300 270 278 273 265 270 268 281 280 290 283 268 255 239 220 203 199 200 201 203 212 222 233 240 243 246 246 248 243 240 236
201 303 163 77 169 199 83 151 177 260 268 282 2 255 264 298 299 283 281 286 284 284 291 285 261 249 237 206 198 199 194 194 205 216 229 241 249 249 247 246 243 241 238 243
221 282 316 148 153 143 165 194 218 270 17 298 228 279 296 270 340 360 347 359 356 349 310 298 259 238 216 191 187 191 191 187 193 208 218 247 257 255 248 246 242 241 240 240
227 286 283 221 135 77 148 159 42 357 289 268 278 270 260 315 343 334 323 328 359 4 4 344 186 190 186 181 185 183 185 187 197 210 214 232 239 236 221 220 230 229 231 230
172 169 241 218 183 190 33 287 87 155 178 270 301 261 236 244 315 307 301 324 318 18 39 65 58 267 200 200 196 191 192 196 205 210 211 216 232 226 236 237 228 225 224 221
210 172 206 219 323 217 165 197 156 128 266 243 255 264 266 296 322 327 305 300 293 280 356 94 265 352 352 252 214 212 205 208 212 221 218 214 222 217 228 231 236 239 243 241
197 232 320 332 352 358 200 195 211 124 118 229 247 267 315 327 349 325 312 312 287 292 227 210 187 261 296 326 285 234 220 219 225 228 224 217 220 224 229 234 234 238 247 252
171 176 184 237 222 173 225 233 222 199 213 249 235 272 280 301 322 326 336 338 323 286 266 245 248 244 280 295 333 318 262 237 231 230 227 226 231 234 239 240 243 242 241 248
106 224 199 250 250 225 234 247 251 221 240 235 270 259 288 303 302 306 326 350 344 348 298 252 252 250 274 281 290 302 291 261 244 236 233 236 238 237 236 235 236 239 247 259
18 255 358 268 250 254 261 259 258 256 264 261 264 269 245 310 334 323 328 340 329 344 350 351 5 269 264 250 262 270 266 243 240 224 227 231 233 232 230 231 242 250 256 263
172 164 106 269 248 308 287 242 256 286 214 228 256 213 298 302 302 315 314 317 299 299 325 336 333 328 308 310 283 247 257 258 246 233 235 236 239 237 231 231 236 244 254 261
161 138 142 265 10 239 234 182 150 310 288 315 240 229 275 306 311 306 299 287 276 281 300 306 311 307 294 291 286 273 256 260 255 264 258 244 238 241 239 245 248 254 260 269
178 129 176 174 207 299 275 78 19 21 298 174 281 301 307 301 300 292 303 299 259 282 296 296 296 297 287 280 278 280 275 268 267 261 258 259 260 258 259 259 262 265 270 273
91 75 143 146 204 245 233 333 314 314 271 118 324 300 302 314 297 291 301 297 288 292 291 287 285 292 283 275 275 274 274 271 267 264 263 263 262 262 261 262 265 268 272 276
25 4 216 222 230 277 146 301 319 188 271 315 313 301 297 280 271 288 292 286 290 289 285 278 285 284 283 282 282 276 275 268 267 270 268 265 265 264 263 262 266 267 268 272
164 196 250 230 257 279 164 308 151 254 296 309 306 297 288 281 280 284 283 294 293 286 276 269 284 277 276 276 269 269 269 269 270 273 270 266 263 263 258 258 260 262 262 267
159 206 211 191 228 239 241 266 287 288 303 303 297 296 287 281 276 284 283 288 294 285 274 279 285 278 271 270 267 268 257 265 274 274 264 261 259 256 248 248 251 256 261 265
311 28 251 1 318 244 304 309 307 303 300 300 298 300 295 284 283 281 284 293 286 285 275 270 286 269 273 262 267 258 263 268 264 257 265 262 256 251 251 253 256 256 255 258
228 359 303 270 294 317 274 317 308 304 305 303 302 301 297 306 296 290 283 285 292 287 271 272 280 273 269 260 268 260 262 263 256 250 252 257 250 246 247 249 251 257 258 257
204 233 247 278 321 307 291 303 309 306 305 304 308 310 303 309 299 304 288 301 292 292 272 274 278 267 265 269 261 259 257 252 248 249 260 256 252 253 255 257 256 254 257 255